Regional Weather Roundup
Issued by NWS State College, PA

Home | Current Version | Previous Version | Graphics & Text | Print | Product List | Glossary Off
Versions: 1 2 3 4 5 6 7 8 9 10 11 12 13 14 15 16 17 18 19 20 21 22 23 24 25 26 27 28 29 30 31 32 33 34 35 36 37 38 39 40 41 42 43 44 45 46 47 48 49 50

000
ASUS41 KCTP 210303
RWRCTP

REGIONAL WEATHER ROUNDUP
NATIONAL WEATHER SERVICE STATE COLLEGE PA
1000 PM EST MON FEB 20 2017

Note: "fair" indicates few or no clouds below 12,000 feet with no
significant weather and/or obstructions to visibility.

* = STATION THAT DOES NOT REPORT PRECIPITATION /E.G. RAIN...SNOW...ETC/
    THUNDER OR FOG.

PAZ002>004-007>009-013>016-020>023-029>032-210400-
WESTERN PENNSYLVANIA

CITY           SKY/WX    TMP DP  RH WIND       PRES   REMARKS
ERIE           PTCLDY    36  27  69 E6        30.22F
MEADVILLE      CLOUDY    47  29  49 E6        30.20F
FRANKLIN*      CLOUDY    45  28  53 E6        30.22F
NEW CASTLE     FAIR      48  30  49 E6        30.20F
BEAVER COUNTY  NOT AVBL
BUTLER*        PTCLDY    46  30  53 E8        30.22F
PITTSBURGH INT MOCLDY    48  32  53 E5        30.19F
PITTSBURGH     CLOUDY    50  27  40 E6        30.19F
INDIANA*       CLEAR     39  32  75 CALM      30.25S
LATROBE        CLEAR     41  34  75 CALM      30.23S
WASHINGTON CO* PTCLDY    39  36  87 CALM      30.21S
$$

PAZ004>006-010>012-017>019-024>028-033>037-041-042-045-046-049>053-210400-
CENTRAL PENNSYLVANIA

CITY           SKY/WX    TMP DP  RH WIND       PRES   REMARKS
BRADFORD       CLEAR     34  21  59 SE3       30.24F
DUBOIS         CLOUDY    42  23  46 E6        30.23F
CLEARFIELD       N/A    N/A N/A N/A MISG      30.27R
JOHNSTOWN      CLOUDY    45  28  51 E6        30.22S
ALTOONA        CLEAR     47  29  49 E5        30.27R
STATE COLLEGE  NOT AVBL
WILLIAMSPORT   CLOUDY    36  23  59 NE3       30.33R
SELINSGROVE    CLOUDY    33  25  72 CALM      30.34R
FT INDIANTOWN  PTCLDY    34  22  61 E6        30.33R
CAPITAL CITY   PTCLDY    46  22  38 E6        30.31R
HARRISBURG     CLOUDY    40  27  59 NW3       30.31R
YORK           PTCLDY    29  26  89 CALM      30.30R
$$

PAZ038>040-043-044-047-048-054-055-060>062-067>071-210400-
EASTERN PENNSYLVANIA

CITY           SKY/WX    TMP DP  RH WIND       PRES   REMARKS
SCRANTON       CLEAR     35  15  44 E5        30.32R
MOUNT POCONO   CLEAR     30  14  51 NE6       30.28R
ALLENTOWN      CLEAR     37  12  35 NE6       30.34R
QUAKERTOWN*    CLEAR     39  10  30 NE5       30.34R
READING        CLEAR     43  12  28 NE7       30.33R
LANCASTER      CLOUDY    41  21  44 SE5       30.32R
COATESVILLE    CLEAR     43  12  28 CALM      30.33R
POTTSTOWN      CLEAR     39  12  33 N5        30.35R
BLUE BELL      CLEAR     39  16  38 CALM      30.33R
DOYLESTOWN     CLEAR     41  11  29 NE3       30.32R
WILLOW GROVE   NOT AVBL
NORTH PHILA    CLEAR     42  12  29 N8        30.35R
PHILADELPHIA   CLEAR     47  10  22 NE15      30.33R
$$



USA.gov is the U.S. government's official web portal to all federal, state and local government web resources and services.